This is the latest recevied weather packets stored in our database for station/object KD9JJA. If no packets are shown the sender has not sent any weather packets the latest 10 day(s).
| Time | Temp. | Humidity | Pressure | Rain* | Wind** | Luminosity | Snow |
|---|---|---|---|---|---|---|---|
| 1777859966 | 15° C | 62% | 1013.1 hPa | 0 mm | - | 0 W/m² | - |
| 1777859661 | 15° C | 64% | 1013.2 hPa | 0 mm | - | 0 W/m² | - |
| 1777859358 | 15° C | 60% | 1013.3 hPa | 0 mm | - | 0 W/m² | - |
| 1777859054 | 15° C | 62% | 1013.4 hPa | 0 mm | - | 0 W/m² | - |
| 1777858751 | 15° C | 64% | 1013.3 hPa | 0 mm | - | 0 W/m² | - |
| 1777858450 | 15° C | 63% | 1013.4 hPa | 0 mm | - | 0 W/m² | - |
| 1777858145 | 15.56° C | 61% | 1013.2 hPa | 0 mm | - | 0 W/m² | - |
| 1777857843 | 15.56° C | 60% | 1013 hPa | 0 mm | - | 0 W/m² | - |
| 1777857540 | 16.11° C | 59% | 1013.2 hPa | 0 mm | - | 0 W/m² | - |
| 1777857237 | 16.11° C | 60% | 1013.1 hPa | 0 mm | - | 0 W/m² | - |
| 1777856933 | 16.11° C | 60% | 1013.2 hPa | 0 mm | - | 0 W/m² | - |
| 1777856628 | 16.11° C | 60% | 1013.1 hPa | 0 mm | - | 0 W/m² | - |
| 1777856320 | 16.11° C | 59% | 1013.1 hPa | 0 mm | - | 0 W/m² | - |
| 1777856016 | 16.11° C | 58% | 1012.9 hPa | 0 mm | - | 0 W/m² | - |
| 1777855714 | 16.11° C | 59% | 1012.7 hPa | 0 mm | - | 0 W/m² | - |
| 1777855411 | 16.11° C | 58% | 1012.5 hPa | 0 mm | - | 0 W/m² | - |
| 1777855108 | 16.11° C | 57% | 1012.5 hPa | 0 mm | - | 0 W/m² | - |
| 1777854805 | 16.11° C | 59% | 1012.5 hPa | 0 mm | - | 0 W/m² | - |
| 1777854501 | 16.11° C | 57% | 1013 hPa | 0 mm | - | 1 W/m² | - |
| 1777854197 | 16.67° C | 56% | 1013.4 hPa | 0 mm | - | 1 W/m² | - |
| 1777853890 | 16.11° C | 59% | 1013.3 hPa | 0 mm | - | 0 W/m² | - |
| 1777853587 | 16.11° C | 57% | 1013.2 hPa | 0 mm | - | 3 W/m² | - |
| 1777853284 | 16.11° C | 56% | 1013.3 hPa | 0 mm | - | 3 W/m² | - |
| 1777852981 | 16.11° C | 56% | 1013.5 hPa | 0 mm | - | 2 W/m² | - |
| 1777852679 | 16.11° C | 59% | 1013 hPa | 0 mm | - | 1 W/m² | - |
* Rain latest hour (hover to see other rain measurements)
** Current wind speed in m/s (hover to see current wind gust speed)